Terug naar catalogus

STARLINK-37322

ActiefCommunicatieVLEO
NORAD 68715·PAYLOAD·🇺🇸 United States

Gelanceerd Apr 14, 2026 vanaf Cape Canaveral Space Force Station

Loading…

Volgende Passages (komende 24 uur)

TLE

VersSource: CelesTrak SupGP

Epoch: Sep 15, 2026, 03:25 UTC

1 68715C 26081S   26258.14284722 -.00049898  00000+0 -14742-2 0  2584
2 68715  53.1588 230.7312 0001427  84.1498  14.5526 15.34415733    15

Volg STARLINK-37322 in realtime met AllMySat

Download on the App Store